Weather History for KLIT - August, 2013

Change the Weather History Date:

Sunday, August 4, 2013

  Actual Average Record
Temperature  
Mean Temperature 82 °F 83 °F  
Max Temperature 91 °F 93 °F 108 °F (1964)
Min Temperature 73 °F 73 °F 58 °F (1974)
Degree Days  
Heating Degree Days 0 0  
Month to date heating degree days 0 0  
Since 1 June heating degree days 0 0  
Since 1 July heating degree days 0 0  
Cooling Degree Days 16 18  
Month to date cooling degree days 48 72  
Year to date cooling degree days 1202 1331  
Since 1 June cooling degree days 951 1050  
Growing Degree Days 32 (Base 50)    
Moisture  
Dew Point 73 °F    
Average Humidity 82    
Maximum Humidity 100    
Minimum Humidity 55    
Precipitation  
Precipitation 0.37 in 0.09 in 2.32 in (1889)
Month to date precipitation T 0.33  
Year to date precipitation 30.45 29.15  
Snow  
Snow 0.00 in 0.00 in - ()
Month to date snowfall 0.0 0.0  
Since 1 June snowfall 0.0 0.0  
Since 1 July snowfall 0.0 0.0  
Snow Depth -    
Sea Level Pressure  
Sea Level Pressure 30.07 in    
Wind  
Wind Speed 4 mph (East)    
Max Wind Speed 16 mph    
Max Gust Speed 29 mph    
Visibility 9 miles    
Events Rain , Thunderstorm    
T = Trace of Precipitation, MM = Missing Value Source: NWS Daily Summary

Daily Weather History Graph

Daily Weather History Graph

Search for Another Location

Airport or City:

Trip Planner

Search our weather history database for the weather conditions in past years. The results will help you decide how hot, cold, wet, or windy it might be!

Date:

Astronomy

Aug. 04, 2013 Rise Set
Actual Time 6:21 AM CDT 8:08 PM CDT
Civil Twilight 5:53 AM CDT 8:35 PM CDT
Nautical Twilight 5:20 AM CDT 9:08 PM CDT
Astronomical Twilight 4:45 AM CDT 9:43 PM CDT
Moon 4:23 AM CDT (8/4) 6:31 PM CDT (8/4)
Length of Visible Light 14h 41m
Length of Day
13h 46m
Waning Crescent, 4% of the Moon is Illuminated
Aug 4
Waning Crescent
Aug 6
New
Aug 14
First Quarter
Aug 20
Full
Aug 28
Last Quarter

Hourly Weather History & Observations

Time (CDT) Temp. Heat Index Dew Point Humidity Pressure Visibility Wind Dir Wind Speed Gust Speed Precip Events Conditions
12:53 AM 75.9 °F - 72.0 °F 87% 30.08 in 10.0 mi Calm Calm - N/A   Partly Cloudy
1:53 AM 75.0 °F - 72.0 °F 90% 30.07 in 10.0 mi Calm Calm - N/A   Clear
2:53 AM 75.0 °F - 72.0 °F 90% 30.05 in 10.0 mi Calm Calm - N/A   Partly Cloudy
3:53 AM 73.9 °F - 72.0 °F 93% 30.06 in 10.0 mi Calm Calm - N/A   Scattered Clouds
4:53 AM 73.9 °F - 72.0 °F 93% 30.08 in 10.0 mi Calm Calm - N/A   Mostly Cloudy
5:16 AM 73.4 °F - 71.6 °F 94% 30.09 in 10.0 mi ENE 3.5 mph - N/A   Mostly Cloudy
5:53 AM 73.9 °F - 72.0 °F 93% 30.09 in 10.0 mi Calm Calm - N/A   Mostly Cloudy
6:53 AM 73.9 °F - 72.0 °F 93% 30.10 in 7.0 mi Calm Calm - N/A   Scattered Clouds
7:53 AM 75.9 °F - 72.0 °F 87% 30.11 in 7.0 mi East 5.8 mph - N/A   Scattered Clouds
8:53 AM 78.1 °F - 71.1 °F 79% 30.12 in 10.0 mi ESE 5.8 mph - N/A   Scattered Clouds
9:53 AM 80.1 °F 83.6 °F 71.1 °F 74% 30.14 in 9.0 mi ESE 3.5 mph - N/A   Overcast
10:53 AM 82.0 °F 86.3 °F 71.1 °F 69% 30.13 in 10.0 mi South 5.8 mph - N/A   Overcast
11:53 AM 84.9 °F 90.7 °F 72.0 °F 65% 30.12 in 10.0 mi ESE 5.8 mph - N/A   Mostly Cloudy
12:53 PM 88.0 °F 94.7 °F 72.0 °F 59% 30.09 in 10.0 mi ENE 5.8 mph - N/A   Mostly Cloudy
1:53 PM 90.0 °F 96.9 °F 72.0 °F 55% 30.07 in 10.0 mi ENE 4.6 mph - N/A   Mostly Cloudy
2:53 PM 88.0 °F 94.7 °F 72.0 °F 59% 30.06 in 10.0 mi East 6.9 mph - N/A   Overcast
3:53 PM 88.0 °F 94.7 °F 72.0 °F 59% 30.04 in 10.0 mi ENE 5.8 mph - N/A   Overcast
4:53 PM 89.1 °F 97.0 °F 73.0 °F 59% 30.03 in 10.0 mi East 5.8 mph - N/A   Mostly Cloudy
5:53 PM 88.0 °F 94.7 °F 72.0 °F 59% 30.02 in 10.0 mi East 5.8 mph - N/A   Mostly Cloudy
6:53 PM 86.0 °F 93.0 °F 73.0 °F 65% 30.03 in 10.0 mi East 5.8 mph - N/A Thunderstorm Thunderstorm
7:53 PM 80.1 °F 84.5 °F 73.9 °F 81% 30.06 in 10.0 mi North 16.1 mph 28.8 mph 0.00 in Rain , Thunderstorm Light Thunderstorms and Rain
8:15 PM 75.2 °F - 73.4 °F 94% 30.09 in 2.0 mi North 13.8 mph - 0.08 in Rain , Thunderstorm Heavy Thunderstorms and Rain
8:33 PM 75.2 °F - 73.4 °F 94% 30.08 in 2.0 mi ENE 9.2 mph - 0.33 in Rain , Thunderstorm Heavy Thunderstorms and Rain
8:41 PM 75.2 °F - 73.4 °F 94% 30.07 in 5.0 mi ENE 11.5 mph - 0.36 in Rain , Thunderstorm Thunderstorms and Rain
8:53 PM 75.9 °F - 73.9 °F 94% 30.07 in 10.0 mi East 12.7 mph - 0.37 in Rain , Thunderstorm Light Thunderstorms and Rain
9:08 PM 75.2 °F - 73.4 °F 94% 30.06 in 10.0 mi ENE 12.7 mph - 0.02 in Rain Light Rain
9:34 PM 75.2 °F - 75.2 °F 100% 30.06 in 10.0 mi ENE 9.2 mph - 0.04 in Rain Light Rain
9:53 PM 75.9 °F - 75.0 °F 97% 30.06 in 10.0 mi East 9.2 mph - N/A Rain Light Rain
10:53 PM 75.9 °F - 73.9 °F 94% 30.05 in 10.0 mi ESE 3.5 mph - 0.00 in   Mostly Cloudy
11:53 PM 75.9 °F - 73.9 °F 94% 30.06 in 6.0 mi ENE 4.6 mph - N/A   Overcast